Inverness, FL

7:26 AM EST on January 16, 2018 (GMT -0500)
Inverness

Weather History for KINF - March, 2013

Change the Weather History Date:

Thursday, March 21, 2013

  Actual Average (KBKV) Record (KBKV)
Temperature  
Mean Temperature 55 °F -  
Max Temperature 69 °F 75 °F 88 °F (2012)
Min Temperature 41 °F 50 °F 42 °F (2017)
Degree Days  
Heating Degree Days 10    
Growing Degree Days 5 (Base 50)    
Moisture  
Dew Point 40 °F    
Average Humidity 66    
Maximum Humidity 100    
Minimum Humidity 20    
Precipitation  
Precipitation 0.00 in - - ()
Sea Level Pressure  
Sea Level Pressure 29.95 in    
Wind  
Wind Speed 3 mph (NNW)    
Max Wind Speed 14 mph    
Max Gust Speed 17 mph    
Visibility 9 miles    
Events Fog    
Averages and records for this station are not official NWS values.
T = Trace of Precipitation, MM = Missing Value Source: NWS Daily Summary

Daily Weather History Graph

Daily Weather History Graph

Search for Another Location

Airport or City:

Trip Planner

Search our weather history database for the weather conditions in past years. The results will help you decide how hot, cold, wet, or windy it might be!

Date:

Astronomy

Mar. 21, 2013 Rise Set
Actual Time 7:31 AM EDT 7:41 PM EDT
Civil Twilight 7:08 AM EDT 8:04 PM EDT
Nautical Twilight 6:40 AM EDT 8:32 PM EDT
Astronomical Twilight 6:12 AM EDT 9:00 PM EDT
Moon 2:32 PM EDT (3/21) 3:29 AM EDT (3/21)
Length of Visible Light 12h 56m
Length of Day
12h 09m
Waxing Gibbous, 68% of the Moon is Illuminated
Mar 21
Waxing Gibbous
Mar 27
Full
Apr 3
Last Quarter
Apr 10
New
Apr 18
First Quarter

Hourly Weather History & Observations

Time (EDT) Temp. Windchill Dew Point Humidity Pressure Visibility Wind Dir Wind Speed Gust Speed Precip Events Conditions
12:15 AM 53.6 °F - 53.6 °F 100% 29.92 in 1.5 mi Calm Calm - N/A   Mist
12:35 AM 53.6 °F - 53.6 °F 100% 29.92 in 2.5 mi Calm Calm - N/A   Scattered Clouds
12:55 AM 53.6 °F - 53.6 °F 100% 29.93 in 0.5 mi Calm Calm - N/A Fog Fog
1:15 AM 53.6 °F - 53.6 °F 100% 29.92 in 0.5 mi Calm Calm - N/A Fog Fog
1:35 AM 53.6 °F - 53.6 °F 100% 29.92 in 0.8 mi Calm Calm - N/A   Overcast
2:15 AM 53.6 °F - 53.6 °F 100% 29.93 in 5.0 mi Calm Calm - N/A   Overcast
2:35 AM 53.6 °F - 53.6 °F 100% 29.94 in 5.0 mi Calm Calm - N/A   Mostly Cloudy
2:55 AM 53.6 °F - 53.6 °F 100% 29.92 in 5.0 mi Calm Calm - N/A   Scattered Clouds
3:15 AM 51.8 °F - 51.8 °F 100% 29.93 in 0.5 mi Calm Calm - N/A Fog Fog
3:35 AM 51.8 °F - 51.8 °F 100% 29.93 in 7.0 mi Calm Calm - N/A   Clear
3:55 AM 50.0 °F - 50.0 °F 100% 29.93 in 10.0 mi NNW 4.6 mph - N/A   Clear
4:15 AM 50.0 °F - 46.4 °F 87% 29.93 in 10.0 mi NNW 3.5 mph - N/A   Clear
4:35 AM 48.2 °F - 44.6 °F 87% 29.92 in 10.0 mi NNW 3.5 mph - N/A   Clear
4:55 AM 46.4 °F - 44.6 °F 93% 29.93 in 10.0 mi Calm Calm - N/A   Clear
5:15 AM 44.6 °F - 44.6 °F 100% 29.94 in 10.0 mi Calm Calm - N/A   Clear
5:35 AM 44.6 °F 43.1 °F 44.6 °F 100% 29.93 in 10.0 mi North 3.5 mph - N/A   Clear
5:55 AM 44.6 °F - 42.8 °F 93% 29.94 in 10.0 mi Calm Calm - N/A   Clear
6:15 AM 44.6 °F - 42.8 °F 93% 29.94 in 10.0 mi Calm Calm - N/A   Clear
6:35 AM 42.8 °F - 42.8 °F 100% 29.95 in 7.0 mi Calm Calm - N/A   Clear
6:55 AM 42.8 °F - 41.0 °F 93% 29.96 in 5.0 mi Calm Calm - N/A   Clear
7:15 AM 41.0 °F - 41.0 °F 100% 29.96 in 7.0 mi Calm Calm - N/A   Clear
7:35 AM 41.0 °F - 41.0 °F 100% 29.97 in 5.0 mi Calm Calm - N/A   Clear
7:55 AM 42.8 °F 41.1 °F 41.0 °F 93% 29.97 in 10.0 mi NNW 3.5 mph - N/A   Clear
8:15 AM 44.6 °F - 41.0 °F 87% 29.98 in 10.0 mi Calm Calm - N/A   Clear
8:55 AM 50.0 °F - 39.2 °F 66% 29.98 in 10.0 mi North 6.9 mph - N/A   Clear
9:15 AM 51.8 °F - 37.4 °F 58% 29.99 in 10.0 mi North 9.2 mph - N/A   Clear
9:35 AM 51.8 °F - 37.4 °F 58% 30.00 in 10.0 mi North 10.4 mph 17.3 mph N/A   Clear
9:55 AM 53.6 °F - 37.4 °F 54% 30.01 in 10.0 mi North 11.5 mph 17.3 mph N/A   Clear
10:15 AM 53.6 °F - 37.4 °F 54% 30.01 in 10.0 mi North 13.8 mph 17.3 mph N/A   Clear
10:35 AM 53.6 °F - 35.6 °F 51% 30.01 in 10.0 mi North 9.2 mph - N/A   Clear
10:55 AM 53.6 °F - 35.6 °F 51% 30.02 in 10.0 mi NNE 9.2 mph - N/A   Clear
11:15 AM 55.4 °F - 37.4 °F 51% 30.02 in 10.0 mi North 6.9 mph - N/A   Clear
11:35 AM 57.2 °F - 35.6 °F 44% 30.02 in 10.0 mi NNE 6.9 mph - N/A   Clear
11:55 AM 59.0 °F - 35.6 °F 42% 30.01 in 10.0 mi NNE 8.1 mph - N/A   Clear
12:15 PM 59.0 °F - 33.8 °F 39% 30.01 in 10.0 mi North 3.5 mph - N/A   Clear
12:35 PM 59.0 °F - 35.6 °F 42% 30.00 in 10.0 mi NNE 6.9 mph - N/A   Scattered Clouds
12:55 PM 62.6 °F - 33.8 °F 34% 29.99 in 10.0 mi NNE 5.8 mph - N/A   Clear
1:15 PM 62.6 °F - 33.8 °F 34% 29.98 in 10.0 mi NE 8.1 mph - N/A   Clear
1:35 PM 64.4 °F - 33.8 °F 32% 29.97 in 10.0 mi North 6.9 mph - N/A   Clear
1:55 PM 64.4 °F - 32.0 °F 30% 29.96 in 10.0 mi North 5.8 mph - N/A   Clear
2:15 PM 68.0 °F - 32.0 °F 26% 29.95 in 10.0 mi North 5.8 mph - N/A   Clear
2:35 PM 68.0 °F - 32.0 °F 26% 29.94 in 10.0 mi North 8.1 mph - N/A   Clear
2:55 PM 68.0 °F - 28.4 °F 23% 29.93 in 10.0 mi NNW 5.8 mph - N/A   Clear
3:15 PM 68.0 °F - 24.8 °F 20% 29.92 in 10.0 mi North 6.9 mph - N/A   Clear
3:35 PM 68.0 °F - 26.6 °F 21% 29.92 in 10.0 mi NNW 6.9 mph - N/A   Clear
3:55 PM 69.8 °F - 26.6 °F 20% 29.91 in 10.0 mi West 6.9 mph - N/A   Clear
4:15 PM 69.8 °F - 26.6 °F 20% 29.91 in 10.0 mi Calm Calm - N/A   Clear
4:35 PM 69.8 °F - 32.0 °F 25% 29.91 in 10.0 mi WSW 5.8 mph - N/A   Clear
4:55 PM 68.0 °F - 35.6 °F 30% 29.91 in 10.0 mi WSW 9.2 mph - N/A   Clear
5:15 PM 68.0 °F - 37.4 °F 33% 29.92 in 10.0 mi West 6.9 mph - N/A   Clear
5:35 PM 64.4 °F - 37.4 °F 37% 29.92 in 10.0 mi West 9.2 mph - N/A   Clear
5:55 PM 64.4 °F - 37.4 °F 37% 29.93 in 10.0 mi West 5.8 mph - N/A   Clear
6:15 PM 62.6 °F - 37.4 °F 39% 29.93 in 10.0 mi WSW 8.1 mph - N/A   Clear
6:35 PM 60.8 °F - 37.4 °F 42% 29.93 in 10.0 mi West 4.6 mph - N/A   Clear
6:55 PM 60.8 °F - 37.4 °F 42% 29.94 in 10.0 mi West 5.8 mph - N/A   Clear
7:15 PM 59.0 °F - 39.2 °F 48% 29.94 in 10.0 mi West 3.5 mph - N/A   Clear
7:35 PM 57.2 °F - 39.2 °F 51% 29.94 in 10.0 mi West 3.5 mph - N/A   Clear
7:55 PM 55.4 °F - 39.2 °F 54% 29.94 in 10.0 mi Calm Calm - N/A   Clear
8:15 PM 53.6 °F - 41.0 °F 62% 29.94 in 10.0 mi Calm Calm - N/A   Clear
8:35 PM 51.8 °F - 41.0 °F 67% 29.95 in 10.0 mi Calm Calm - N/A   Clear
8:55 PM 50.0 °F - 41.0 °F 71% 29.95 in 10.0 mi Calm Calm - N/A   Clear
9:15 PM 48.2 °F - 41.0 °F 76% 29.96 in 10.0 mi Calm Calm - N/A   Clear
9:35 PM 46.4 °F - 41.0 °F 81% 29.96 in 10.0 mi Calm Calm - N/A   Clear
9:55 PM 46.4 °F - 41.0 °F 81% 29.96 in 10.0 mi Calm Calm - N/A   Clear
10:15 PM 44.6 °F - 41.0 °F 87% 29.96 in 10.0 mi Calm Calm - N/A   Clear
10:35 PM 44.6 °F - 41.0 °F 87% 29.96 in 10.0 mi Calm Calm - N/A   Clear
10:55 PM 44.6 °F - 41.0 °F 87% 29.97 in 10.0 mi Calm Calm - N/A   Clear
11:15 PM 44.6 °F - 41.0 °F 87% 29.98 in 10.0 mi Calm Calm - N/A   Clear
11:35 PM 42.8 °F - 39.2 °F 87% 29.98 in 10.0 mi Calm Calm - N/A   Clear
11:55 PM 42.8 °F - 41.0 °F 93% 29.99 in 10.0 mi Calm Calm - N/A   Clear